Lid_Strength_Index
4 5 5 4 5 5 5 5 4 4 3 3 3 3 3 3 3 4 3 1 2 5 6 4 5 6 7 6 8 6 7 7 7 10 10 10 11 9 10 9 11 11 13 13 13 14 16 6 7 11 9 7 6 6
4 4 5 5 5 5 5 5 5 4 4 3 3 3 3 3 3 4 3 -0 -0 3 4 4 4 5 5 5 7 7 7 6 6 9 9 9 10 9 10 12 8 11 9 11 11 12 7 6 7 6 5 6 6 6
4 4 4 5 5 5 5 5 5 5 4 4 3 3 3 4 4 4 3 1 2 4 4 4 6 5 4 5 5 7 6 6 5 5 7 8 10 8 11 10 9 8 7 10 10 8 7 6 5 5 5 6 5 5
4 4 4 5 5 5 5 5 5 5 5 5 4 4 3 4 4 4 2 1 2 4 7 5 1 2 2 3 4 5 6 6 6 5 7 8 9 7 9 9 8 7 8 9 9 8 7 6 5 5 5 4 4 4
4 4 4 4 4 5 5 5 5 5 5 5 5 4 4 4 4 4 3 1 0 4 7 6 3 2 2 2 2 2 6 7 6 7 7 8 6 7 7 7 9 7 8 10 11 7 7 7 5 4 4 5 4 4
4 4 4 4 4 4 4 5 5 5 5 5 5 5 5 5 5 3 4 1 2 1 5 8 3 2 2 2 1 3 3 4 5 6 7 6 4 7 9 10 7 6 5 5 7 5 5 5 4 4 5 4 4 4
5 4 4 4 4 4 4 4 5 5 5 5 6 6 6 6 5 3 4 4 6 0 5 7 6 3 2 3 3 4 3 4 5 5 6 6 6 6 8 10 7 6 5 5 4 5 6 5 6 4 4 3 3 3
4 4 5 4 4 4 4 4 4 5 5 5 5 6 6 6 6 3 2 5 4 3 4 8 7 6 3 5 6 3 5 5 5 6 6 7 6 7 9 7 6 5 5 5 5 4 5 4 4 4 3 3 4 4
5 4 4 4 4 5 4 4 4 5 5 5 5 5 4 3 3 2 4 3 2 3 8 7 8 9 3 5 5 5 5 8 5 7 7 6 8 10 8 7 7 6 6 6 4 4 4 5 5 4 4 4 5 5
4 4 4 4 4 4 4 5 4 5 5 5 3 3 5 3 2 1 2 4 4 4 5 7 5 8 5 6 7 7 6 8 10 8 6 8 10 7 6 5 5 5 4 4 6 6 5 6 5 5 4 4 4 4
3 3 4 4 4 4 4 4 5 5 4 4 6 4 4 3 2 4 6 7 7 8 6 6 5 7 4 8 8 6 8 8 10 9 9 10 11 8 5 5 4 4 4 3 3 4 4 4 4 5 4 4 4 3
4 3 3 3 3 4 4 4 4 5 6 6 7 6 4 4 5 7 8 7 7 9 6 7 6 5 5 4 7 7 7 8 10 6 9 12 9 6 6 5 4 4 4 3 3 4 4 4 4 4 4 4 4 3
4 3 3 3 3 3 3 4 4 4 5 4 5 5 6 6 10 10 10 9 9 6 5 5 6 6 5 5 7 7 8 10 6 9 10 10 7 6 5 5 4 3 3 3 4 3 3 3 3 3 4 3 3 4
3 3 3 3 3 3 3 3 3 4 5 5 6 12 9 9 8 8 7 7 6 5 6 5 6 6 6 7 7 8 8 7 10 11 12 9 7 6 5 4 4 4 4 4 4 4 4 4 4 3 3 3 3 4
3 3 3 3 3 3 3 3 3 3 4 6 6 11 8 6 5 5 4 5 5 4 5 6 6 6 7 7 7 8 9 10 10 12 10 7 6 6 5 5 5 5 4 4 4 4 4 4 4 4 3 3 3 3
2 2 2 2 2 2 3 3 3 2 3 5 5 7 6 6 6 5 5 5 4 4 4 5 6 8 8 8 8 9 9 11 11 8 7 6 6 5 5 5 4 4 4 4 4 4 4 4 4 4 3 3 3 3
2 3 1 2 2 2 2 3 2 4 5 5 6 4 5 5 6 6 5 5 4 5 7 7 8 9 7 9 9 8 9 9 7 6 5 5 5 5 4 4 4 4 4 4 4 4 4 3 4 4 4 4 3 3
4 2 1 1 2 2 1 2 3 5 7 5 6 5 4 4 5 5 5 4 5 5 6 8 6 8 9 9 9 8 7 6 5 5 5 5 4 4 4 4 4 3 4 4 3 3 3 3 4 4 4 3 3 3
3 2 2 2 2 3 4 3 3 7 6 5 4 4 4 4 3 3 4 3 3 3 5 6 8 9 8 7 7 7 6 6 6 5 5 4 4 4 4 3 3 3 3 3 3 3 3 3 4 4 4 4 4 3
2 2 2 2 2 4 5 5 2 5 7 5 4 5 5 5 3 3 4 4 4 5 7 7 8 7 6 6 5 5 5 4 5 6 5 4 4 3 3 4 4 3 3 3 3 4 3 4 3 4 4 4 4 3
3 2 2 2 3 3 4 5 5 5 5 6 4 5 5 4 5 5 5 3 5 6 7 6 5 5 4 4 3 4 4 4 5 5 5 5 4 3 3 3 3 3 4 4 4 4 6 4 3 2 2 3 3 3
3 2 2 2 4 3 4 3 5 4 5 5 5 5 6 7 6 6 4 6 6 5 5 5 5 5 5 4 4 3 3 3 3 4 5 5 4 4 4 3 4 4 3 3 3 3 3 3 3 2 3 4 4 4
3 3 4 4 6 7 7 2 6 5 8 7 5 7 7 6 5 4 7 5 5 3 3 4 3 3 4 3 3 3 2 3 4 4 3 3 3 3 3 3 3 3 4 3 2 3 3 4 4 3 4 4 4 5
3 5 6 7 7 8 5 7 5 6 6 8 8 8 7 6 4 7 8 6 5 3 3 4 4 4 4 4 4 4 3 3 3 3 3 3 4 4 3 3 2 2 2 2 2 2 2 3 5 4 4 4 4 5
8 8 8 11 6 7 8 8 7 8 9 7 8 8 7 5 8 8 8 6 5 5 4 4 4 3 5 5 4 4 2 3 4 4 3 2 3 3 3 3 2 2 2 2 3 3 3 3 3 4 4 4 4 5
11 7 9 8 7 8 8 9 8 8 8 8 7 6 6 7 9 10 8 6 6 5 5 4 5 5 5 4 4 4 3 2 3 4 2 2 3 3 4 4 4 4 2 2 3 3 3 3 3 3 4 4 7 4
10 8 6 4 5 6 7 6 6 8 9 9 8 8 8 10 10 8 5 4 5 4 3 3 3 4 4 4 2 2 2 2 2 2 2 1 1 2 2 3 4 3 2 3 3 3 5 5 4 3 3 3 3 3
6 6 8 6 7 6 8 8 8 9 8 6 7 9 10 10 10 6 5 3 3 2 2 2 2 2 3 3 2 2 2 2 2 2 2 2 2 2 1 1 2 7 3 2 4 3 4 4 4 3 3 3 3 3
6 5 5 7 7 6 7 7 7 6 5 6 8 9 8 5 4 4 3 2 2 3 4 4 3 2 2 2 2 2 2 2 4 5 5 5 4 3 1 1 2 2 2 2 6 7 4 4 3 3 2 2 3 3
6 4 7 7 8 8 6 5 5 4 4 5 5 5 5 4 3 2 2 3 3 4 3 3 3 3 3 3 3 3 3 2 2 3 4 4 4 2 1 1 1 1 1 1 1 1 6 4 4 2 3 3 3 3
4 5 6 6 7 5 5 4 3 4 4 4 4 6 6 5 4 2 2 2 3 3 3 3 4 4 5 4 4 5 6 5 5 5 2 2 2 1 1 1 1 1 1 2 2 2 2 3 3 3 3 3 4 4
5 6 7 8 7 5 4 5 5 5 5 5 6 5 5 6 7 4 2 2 3 5 6 5 5 5 5 5 6 6 8 7 6 6 5 4 3 2 2 1 1 1 2 2 2 2 2 2 3 3 3 3 3 4
6 6 6 6 7 6 5 5 6 6 5 6 6 6 5 6 8 5 1 1 2 3 4 4 4 4 5 6 6 7 7 6 9 11 10 10 9 7 3 2 2 1 1 2 2 2 2 3 3 3 3 4 4 4